TimeEDT,TemperatureF,Dew PointF,Humidity,Sea Level PressureIn,VisibilityMPH,Wind Direction,Wind SpeedMPH,Gust SpeedMPH,PrecipitationIn,Events,Conditions,WindDirDegrees,DateUTC
12:53 AM,48.9,37.0,64,30.19,10.0,South,4.6,-,N/A,,Clear,190,2012-10-12 04:53:00
1:53 AM,45.0,36.0,71,30.18,10.0,SSW,6.9,-,N/A,,Clear,200,2012-10-12 05:53:00
2:53 AM,44.1,36.0,73,30.20,10.0,SSW,3.5,-,N/A,,Clear,210,2012-10-12 06:53:00
3:53 AM,44.1,37.9,79,30.20,10.0,Calm,Calm,-,N/A,,Clear,0,2012-10-12 07:53:00
4:53 AM,46.0,37.9,73,30.21,10.0,Calm,Calm,-,N/A,,Clear,0,2012-10-12 08:53:00
5:53 AM,42.1,37.9,85,30.25,10.0,SW,4.6,-,N/A,,Clear,220,2012-10-12 09:53:00
6:53 AM,41.0,37.0,86,30.26,10.0,North,4.6,-,N/A,,Clear,10,2012-10-12 10:53:00
7:53 AM,44.1,39.0,82,30.28,10.0,NNE,9.2,-,N/A,,Clear,30,2012-10-12 11:53:00
8:53 AM,46.9,41.0,80,30.32,10.0,NE,9.2,-,N/A,,Clear,40,2012-10-12 12:53:00
9:53 AM,48.9,41.0,74,30.35,10.0,NE,10.4,-,N/A,,Mostly Cloudy,50,2012-10-12 13:53:00
10:53 AM,52.0,39.9,63,30.37,10.0,NE,16.1,23.0,N/A,,Mostly Cloudy,50,2012-10-12 14:53:00
11:53 AM,54.0,37.0,53,30.38,10.0,ENE,12.7,-,N/A,,Partly Cloudy,60,2012-10-12 15:53:00
1:53 PM,57.0,35.1,44,30.37,10.0,East,10.4,-,N/A,,Clear,90,2012-10-12 17:53:00
2:53 PM,57.9,35.1,42,30.34,10.0,East,8.1,-,N/A,,Clear,80,2012-10-12 18:53:00
3:53 PM,60.1,34.0,38,30.33,10.0,East,6.9,-,N/A,,Clear,90,2012-10-12 19:53:00
4:53 PM,60.1,34.0,38,30.32,10.0,East,8.1,-,N/A,,Clear,90,2012-10-12 20:53:00
6:53 PM,55.0,35.1,47,30.33,10.0,ENE,4.6,-,N/A,,Clear,70,2012-10-12 22:53:00
7:53 PM,46.9,35.1,63,30.33,10.0,ENE,6.9,-,N/A,,Clear,70,2012-10-12 23:53:00
8:53 PM,45.0,34.0,65,30.33,10.0,East,4.6,-,N/A,,Clear,80,2012-10-13 00:53:00
10:53 PM,42.1,34.0,73,30.32,10.0,East,6.9,-,N/A,,Clear,80,2012-10-13 02:53:00
11:53 PM,41.0,34.0,76,30.31,10.0,East,6.9,-,N/A,,Clear,80,2012-10-13 03:53:00